Szolnok, Hungary

8:49 AM CEST on September 23, 2017 (GMT +0200)
Szolnok

Weather History for LHSN - October, 2013

Change the Weather History Date:

Wednesday, October 2, 2013

  Actual Average (LHBP) Record (LHBP)
Temperature  
Mean Temperature 50 °F -  
Max Temperature 53 °F 66 °F 77 °F (2001)
Min Temperature 46 °F 46 °F 37 °F (2004)
Degree Days  
Heating Degree Days 16    
Moisture  
Dew Point 36 °F    
Average Humidity 63    
Maximum Humidity 87    
Minimum Humidity 35    
Precipitation  
Precipitation 0.00 in - - ()
Sea Level Pressure  
Sea Level Pressure 30.06 in    
Wind  
Wind Speed 11 mph ()    
Max Wind Speed 18 mph    
Max Gust Speed 27 mph    
Visibility 6.2 miles    
Events      
Averages and records for this station are not official NWS values.
T = Trace of Precipitation, MM = Missing Value Source: Averaged Metar Reports

Daily Weather History Graph

Daily Weather History Graph

Search for Another Location

Airport or City:

Trip Planner

Search our weather history database for the weather conditions in past years. The results will help you decide how hot, cold, wet, or windy it might be!

Date:

Astronomy

Oct. 02, 2013 Rise Set
Actual Time 6:39 AM CEST 6:16 PM CEST
Civil Twilight 6:08 AM CEST 6:47 PM CEST
Nautical Twilight 5:33 AM CEST 7:22 PM CEST
Astronomical Twilight 4:57 AM CEST 7:58 PM CEST
Moon 3:45 AM CEST (10/2) 4:49 PM CEST (10/2)
Length of Visible Light 12h 38m
Length of Day
11h 37m
Waning Crescent, 7% of the Moon is Illuminated
Oct 2
Waning Crescent
Oct 5
New
Oct 12
First Quarter
Oct 19
Full
Oct 27
Last Quarter

Hourly Weather History & Observations

Time (CEST) Temp. Windchill Dew Point Humidity Pressure Visibility Wind Dir Wind Speed Gust Speed Precip Events Conditions
12:15 AM 48.2 °F - 42.8 °F 82% 29.92 in - NNE 11.2 mph - N/A   Clear
12:45 AM 48.2 °F - 42.8 °F 82% 29.92 in - NE 13.4 mph - N/A   Clear
1:15 AM 46.4 °F 41.2 °F 42.8 °F 87% 29.95 in - NE 11.2 mph - N/A   Clear
1:45 AM 46.4 °F 40.5 °F 41.0 °F 81% 29.95 in - NE 13.4 mph - N/A   Clear
2:15 AM 46.4 °F 42.0 °F 41.0 °F 81% 29.95 in - NNE 8.9 mph - N/A   Clear
2:45 AM 46.4 °F 42.0 °F 41.0 °F 81% 29.95 in - NE 8.9 mph - N/A   Clear
3:15 AM 46.4 °F 42.0 °F 41.0 °F 81% 29.95 in - NNE 8.9 mph - N/A   Clear
3:45 AM - - - N/A% - 6.2 mi NNE 8.9 mph - N/A   Clear
4:15 AM 48.2 °F - 41.0 °F 76% 29.98 in - NNE 11.2 mph - N/A   Clear
4:45 AM 46.4 °F 41.2 °F 41.0 °F 81% 29.98 in - NNE 11.2 mph - N/A   Clear
5:15 AM 46.4 °F 41.2 °F 41.0 °F 81% 29.98 in - NNE 11.2 mph - N/A   Clear
5:45 AM 46.4 °F 41.2 °F 42.8 °F 87% 29.98 in - North 11.2 mph - N/A   Clear
6:15 AM 46.4 °F 42.0 °F 42.8 °F 87% 29.98 in - North 8.9 mph - N/A   Clear
6:45 AM - - - N/A% - 6.2 mi NNE 11.2 mph - N/A   Clear
7:15 AM 46.4 °F 42.0 °F 41.0 °F 81% 30.01 in - NNE 8.9 mph - N/A   Clear
7:45 AM 48.2 °F - 41.0 °F 76% 30.01 in - NE 11.2 mph - N/A   Clear
8:15 AM 48.2 °F - 41.0 °F 76% 30.04 in - NE 13.4 mph - N/A   Clear
8:45 AM 48.2 °F - 39.2 °F 71% 30.04 in - NNE 11.2 mph - N/A   Clear
9:15 AM 48.2 °F - 39.2 °F 71% 30.06 in - NNE 13.4 mph - N/A   Clear
9:45 AM - - - N/A% - 6.2 mi NNE 11.2 mph - N/A   Clear
9:58 AM 48.2 °F - 39.2 °F 71% 30.06 in - NE 15.7 mph 26.8 mph N/A   Clear
10:15 AM 48.2 °F - 37.4 °F 66% 30.06 in - NE 15.7 mph - N/A   Clear
10:45 AM 48.2 °F - 37.4 °F 66% 30.09 in - NE 15.7 mph - N/A   Clear
11:15 AM 50.0 °F - 37.4 °F 62% 30.09 in - NE 17.9 mph - N/A   Clear
11:45 AM 50.0 °F - 35.6 °F 58% 30.09 in - NE 17.9 mph - N/A   Clear
12:15 PM 50.0 °F - 35.6 °F 58% 30.09 in - NE 17.9 mph - N/A   Clear
12:45 PM - - - N/A% - 6.2 mi NNE 11.2 mph - N/A   Clear
1:15 PM 53.6 °F - 33.8 °F 47% 30.12 in - NE 17.9 mph - N/A   Clear
1:45 PM 53.6 °F - 33.8 °F 47% 30.12 in - NE 13.4 mph - N/A   Clear
2:15 PM 51.8 °F - 32.0 °F 47% 30.12 in - NNE 13.4 mph - N/A   Clear
2:45 PM 53.6 °F - 30.2 °F 41% 30.12 in - NE 13.4 mph - N/A   Clear
3:15 PM 53.6 °F - 30.2 °F 41% 30.12 in - NNE 13.4 mph - N/A   Clear
3:45 PM 51.8 °F - 26.6 °F 38% 30.15 in - NE 13.4 mph - N/A   Clear
4:15 PM 51.8 °F - 26.6 °F 38% 30.15 in - NNE 13.4 mph - N/A   Clear
4:45 PM 51.8 °F - 24.8 °F 35% 30.15 in - NNE 15.7 mph - N/A   Clear
5:15 PM 50.0 °F - 24.8 °F 37% 30.18 in - NNE 13.4 mph - N/A   Clear
5:45 PM 50.0 °F - 24.8 °F 37% 30.18 in - NNE 13.4 mph - N/A   Clear
6:15 PM 48.2 °F - 23.0 °F 37% 30.18 in - NNE 13.4 mph - N/A   Clear
6:45 PM 48.2 °F - 24.8 °F 40% 30.21 in - NNE 13.4 mph - N/A   Clear
7:15 PM 48.2 °F - 23.0 °F 37% 30.21 in - NE 17.9 mph - N/A   Clear
8:45 PM - - - N/A% - - NNE 8.9 mph - N/A   Clear
9:45 PM - - - N/A% - - NNE 11.2 mph - N/A   Clear